• în Republica Moldova
  • Lista ţărilor
  • Pe 7 zile
  • Temperatura apei
  • Hartă satelitară
  • Meteo pe hartă
  • Widget-uri
  • user-avatar
    Intrare

    Meteo pe oră la Biskira

    Astăzi, 20 Ianuarie, Vineri

    Timp Temperatura Precipitaţii Vânt Presiune Umiditate
    00:00 +7°C° 0 mm 3 m/s 754 mmHg 48%
    01:00 +7°C° 0 mm 2 m/s 754 mmHg 48%
    02:00 +7°C° 0 mm 2 m/s 753 mmHg 48%
    03:00 +7°C° 0 mm 2 m/s 753 mmHg 48%
    04:00 +7°C° 0 mm 2 m/s 753 mmHg 48%
    05:00 +7°C° 0 mm 2 m/s 752 mmHg 48%
    06:00 +7°C° 0 mm 2 m/s 752 mmHg 47%
    07:00 +8°C° 0 mm 3 m/s 752 mmHg 45%
    08:00 +10°C° 0 mm 3 m/s 752 mmHg 43%
    09:00 +12°C° 0 mm 4 m/s 751 mmHg 41%
    10:00 +13°C° 0 mm 6 m/s 751 mmHg 42%
    11:00 +13°C° 0 mm 8 m/s 750 mmHg 44%
    12:00 +16°C° 0 mm 10 m/s 749 mmHg 47%
    13:00 +16°C° 0 mm 10 m/s 748 mmHg 46%
    14:00 +16°C° 0 mm 10 m/s 748 mmHg 45%
    15:00 +16°C° 0 mm 10 m/s 747 mmHg 44%
    16:00 +15°C° 0 mm 9 m/s 747 mmHg 44%
    17:00 +12°C° 0 mm 7 m/s 746 mmHg 45%
    18:00 +11°C° 0 mm 6 m/s 746 mmHg 45%
    19:00 +11°C° 0,1 mm 6 m/s 746 mmHg 43%
    20:00 +11°C° 0,1 mm 7 m/s 746 mmHg 42%
    21:00 +11°C° 0,1 mm 7 m/s 746 mmHg 40%
    22:00 +10°C° 0 mm 7 m/s 745 mmHg 41%
    23:00 +10°C° 0 mm 6 m/s 745 mmHg 42%

    Mâine, 21 Ianuarie, Sâmbătă

    Timp Temperatura Precipitaţii Vânt Presiune Umiditate
    00:00 +9°C° 0 mm 6 m/s 745 mmHg 43%
    01:00 +8°C° 0 mm 5 m/s 745 mmHg 47%
    02:00 +7°C° 0 mm 4 m/s 745 mmHg 51%
    03:00 +7°C° 0 mm 3 m/s 745 mmHg 54%
    04:00 +7°C° 0 mm 2 m/s 745 mmHg 56%
    05:00 +6°C° 0 mm 2 m/s 745 mmHg 57%
    06:00 +6°C° 0 mm 2 m/s 746 mmHg 59%
    07:00 +7°C° 0 mm 2 m/s 746 mmHg 55%
    08:00 +8°C° 0 mm 2 m/s 746 mmHg 51%
    09:00 +9°C° 0 mm 2 m/s 747 mmHg 47%
    10:00 +10°C° 0 mm 2 m/s 747 mmHg 45%
    11:00 +10°C° 0 mm 3 m/s 746 mmHg 44%
    12:00 +11°C° 0 mm 3 m/s 746 mmHg 42%
    13:00 +11°C° 0,2 mm 4 m/s 746 mmHg 44%
    14:00 +12°C° 0,2 mm 4 m/s 746 mmHg 45%
    15:00 +12°C° 0,2 mm 5 m/s 745 mmHg 46%
    16:00 +10°C° 0,5 mm 5 m/s 746 mmHg 50%
    17:00 +10°C° 0,5 mm 5 m/s 746 mmHg 55%
    18:00 +9°C° 0,5 mm 5 m/s 747 mmHg 59%
    19:00 +9°C° 0,2 mm 5 m/s 747 mmHg 61%
    20:00 +9°C° 0,2 mm 5 m/s 747 mmHg 62%
    21:00 +8°C° 0,2 mm 4 m/s 748 mmHg 64%
    22:00 +8°C° 0 mm 4 m/s 748 mmHg 65%
    23:00 +8°C° 0 mm 4 m/s 748 mmHg 67%

    Poimâine, 22 Ianuarie, Duminică

    Timp Temperatura Precipitaţii Vânt Presiune Umiditate
    00:00 +8°C° 0 mm 3 m/s 748 mmHg 69%
    01:00 +7°C° 0 mm 4 m/s 748 mmHg 69%
    02:00 +7°C° 0 mm 4 m/s 748 mmHg 70%
    03:00 +7°C° 0 mm 4 m/s 748 mmHg 70%
    04:00 +7°C° 0,1 mm 4 m/s 747 mmHg 70%
    05:00 +7°C° 0,1 mm 4 m/s 747 mmHg 71%
    06:00 +7°C° 0,1 mm 4 m/s 747 mmHg 71%
    07:00 +7°C° 0,2 mm 5 m/s 747 mmHg 70%
    08:00 +7°C° 0,2 mm 6 m/s 748 mmHg 68%
    09:00 +8°C° 0,2 mm 6 m/s 748 mmHg 66%
    10:00 +8°C° 0,3 mm 7 m/s 748 mmHg 64%
    11:00 +8°C° 0,3 mm 7 m/s 747 mmHg 62%
    12:00 +9°C° 0,3 mm 7 m/s 747 mmHg 60%
    13:00 +9°C° 0,4 mm 7 m/s 747 mmHg 62%
    14:00 +9°C° 0,4 mm 6 m/s 746 mmHg 64%
    15:00 +9°C° 0,4 mm 6 m/s 746 mmHg 65%
    16:00 +8°C° 0,2 mm 5 m/s 747 mmHg 68%
    17:00 +8°C° 0,2 mm 5 m/s 747 mmHg 70%
    18:00 +7°C° 0,2 mm 4 m/s 747 mmHg 73%
    19:00 +7°C° 0,3 mm 4 m/s 748 mmHg 73%
    20:00 +8°C° 0,3 mm 3 m/s 748 mmHg 74%
    21:00 +8°C° 0,3 mm 2 m/s 749 mmHg 75%
    22:00 +8°C° 0 mm 2 m/s 749 mmHg 76%
    23:00 +7°C° 0 mm 2 m/s 749 mmHg 77%

    23 Ianuarie, Luni

    Timp Temperatura Precipitaţii Vânt Presiune Umiditate
    00:00 +7°C° 0 mm 2 m/s 748 mmHg 79%
    01:00 +6°C° 0 mm 2 m/s 748 mmHg 80%
    02:00 +6°C° 0 mm 2 m/s 748 mmHg 81%
    03:00 +6°C° 0 mm 2 m/s 748 mmHg 82%
    04:00 +6°C° 0 mm 2 m/s 749 mmHg 82%
    05:00 +6°C° 0 mm 2 m/s 749 mmHg 82%
    06:00 +5°C° 0 mm 2 m/s 749 mmHg 82%
    07:00 +7°C° 0 mm 2 m/s 749 mmHg 77%
    08:00 +8°C° 0 mm 3 m/s 750 mmHg 72%
    09:00 +9°C° 0 mm 3 m/s 750 mmHg 67%
    10:00 +11°C° 0 mm 4 m/s 750 mmHg 63%
    11:00 +12°C° 0 mm 4 m/s 750 mmHg 58%
    12:00 +13°C° 0 mm 5 m/s 749 mmHg 53%
    13:00 +14°C° 0,1 mm 5 m/s 749 mmHg 52%
    14:00 +14°C° 0,1 mm 5 m/s 749 mmHg 51%
    15:00 +14°C° 0,1 mm 6 m/s 749 mmHg 50%
    16:00 +13°C° 0,1 mm 5 m/s 749 mmHg 56%
    17:00 +12°C° 0,1 mm 5 m/s 750 mmHg 61%
    18:00 +10°C° 0,1 mm 5 m/s 750 mmHg 67%
    19:00 +9°C° 0 mm 5 m/s 751 mmHg 68%
    20:00 +9°C° 0 mm 5 m/s 751 mmHg 70%
    21:00 +8°C° 0 mm 5 m/s 751 mmHg 71%
    22:00 +8°C° 0 mm 5 m/s 751 mmHg 72%
    23:00 +8°C° 0 mm 5 m/s 751 mmHg 73%

    24 Ianuarie, Marţi

    Timp Temperatura Precipitaţii Vânt Presiune Umiditate
    00:00 +7°C° 0 mm 5 m/s 751 mmHg 74%
    01:00 +7°C° 0 mm 4 m/s 751 mmHg 74%
    02:00 +7°C° 0 mm 4 m/s 751 mmHg 75%
    03:00 +7°C° 0 mm 4 m/s 751 mmHg 76%
    04:00 +6°C° 0 mm 4 m/s 751 mmHg 76%
    05:00 +6°C° 0 mm 4 m/s 751 mmHg 76%
    06:00 +6°C° 0 mm 4 m/s 752 mmHg 76%
    07:00 +7°C° 0 mm 5 m/s 752 mmHg 71%
    08:00 +8°C° 0 mm 5 m/s 752 mmHg 66%
    09:00 +10°C° 0 mm 5 m/s 753 mmHg 61%
    10:00 +12°C° 0 mm 5 m/s 752 mmHg 56%
    11:00 +13°C° 0 mm 5 m/s 752 mmHg 50%
    12:00 +14°C° 0 mm 5 m/s 752 mmHg 45%
    13:00 +14°C° 0 mm 5 m/s 752 mmHg 45%
    14:00 +14°C° 0 mm 5 m/s 752 mmHg 45%
    15:00 +15°C° 0 mm 6 m/s 752 mmHg 44%
    16:00 +14°C° 0 mm 6 m/s 752 mmHg 50%
    17:00 +12°C° 0 mm 5 m/s 753 mmHg 55%
    18:00 +10°C° 0 mm 5 m/s 753 mmHg 61%
    19:00 +10°C° 0 mm 5 m/s 754 mmHg 63%
    20:00 +9°C° 0 mm 6 m/s 754 mmHg 65%
    21:00 +9°C° 0 mm 6 m/s 754 mmHg 67%
    22:00 +9°C° 0 mm 6 m/s 754 mmHg 68%
    23:00 +8°C° 0 mm 6 m/s 754 mmHg 70%

    25 Ianuarie, Miercuri

    Timp Temperatura Precipitaţii Vânt Presiune Umiditate
    00:00 +8°C° 0 mm 6 m/s 754 mmHg 72%
    01:00 +8°C° 0,2 mm 6 m/s 754 mmHg 72%
    02:00 +8°C° 0,2 mm 6 m/s 754 mmHg 72%
    03:00 +8°C° 0,2 mm 6 m/s 754 mmHg 72%
    04:00 +8°C° 0 mm 6 m/s 755 mmHg 73%
    05:00 +7°C° 0 mm 6 m/s 755 mmHg 73%
    06:00 +7°C° 0 mm 6 m/s 755 mmHg 74%
    07:00 +8°C° 0 mm 6 m/s 756 mmHg 70%
    08:00 +9°C° 0 mm 6 m/s 756 mmHg 66%
    09:00 +10°C° 0 mm 7 m/s 756 mmHg 62%
    10:00 +11°C° 0 mm 7 m/s 756 mmHg 56%
    11:00 +14°C° 0 mm 7 m/s 756 mmHg 51%
    12:00 +15°C° 0 mm 7 m/s 756 mmHg 46%
    13:00 +15°C° 0 mm 6 m/s 756 mmHg 45%
    14:00 +16°C° 0 mm 6 m/s 756 mmHg 44%
    15:00 +16°C° 0 mm 5 m/s 756 mmHg 43%
    16:00 +15°C° 0 mm 5 m/s 756 mmHg 48%
    17:00 +13°C° 0 mm 4 m/s 757 mmHg 54%
    18:00 +12°C° 0 mm 4 m/s 757 mmHg 59%
    19:00 +12°C° 0 mm 4 m/s 758 mmHg 61%
    20:00 +11°C° 0 mm 4 m/s 758 mmHg 63%
    21:00 +10°C° 0 mm 4 m/s 759 mmHg 66%
    22:00 +10°C° 0 mm 4 m/s 759 mmHg 67%
    23:00 +10°C° 0 mm 4 m/s 759 mmHg 67%
    Arată mai mult